Location: Jackson Park
(37.2862°N, 79.9123°W)
Time: 20:44:42
(UTC+00:00)

Vanguard 3 - Pass Details

Date: 15 May 2026
Orbit: 507 x 3205 km, 33.4° (Epoch: 31 May)

Event Time Altitude Azimuth Distance (km) Brightness Sun altitude
Rises 02:47:10 0° 278° (W) 6,103 12.3 -23.8°
Reaches altitude 10° 02:54:59 10° 254° (WSW) 4,364 11.1 -24.8°
Maximum altitude 02:58:53 12° 234° (SW) 3,763 10.5 -25.2°
Drops below altitude 10° 03:02:13 10° 213° (SSW) 3,566 10.2 -25.6°
Enters shadow 03:02:57 - 208° (SSW) 3,574 10.2 -25.7°
Sets 03:07:03 0° 184° (S) 3,961 - -26.2°
